SCOUT A DEB, 2777

Orbit data source: Space-Track

SCOUT A DEB, 2777 is space debris in LEO originally from a launch on Fri, 14 Apr 1967 UTC launched from the Air Force Western Test Range (AFWTR). Debris objects in space refer to the collection of defunct objects orbiting the Earth. Examples of debris include non-operational satellites, rocket bodies, and fragments generated from explosions, collisions, or faulty payload assembly.

Loading next visibility...
Identifier
2777, 1967-034C
Orbit
LEO
Country
Flag of USUS
Related business
Manufacturer
Unknown
Mission
Spacecraft
Bus & Motor
Unknown
Mass
Unknown
Launch date (UTC)
1967-04-14 (58 years ago)
Launch vehicle
Unknown
Launch site
Air Force Western Test Range (AFWTR)
Object type
Payload
Rocket body
Debris
Shape & HBR
Unknown
Radar Cross Section
Small (<0.1 m²)

Expand to show TLE details & history
Last TLE update: 16 hours ago

TLE from 16 hours ago
0 SCOUT A DEB
1 02777U 67034C   25260.93495745  .00000660  00000-0  37454-3 0  9992
2 02777  90.2708 236.8050 0126460 252.8255 105.9050 14.05323497971222
Epoch: 2025-09-17T22:26Z
TLE epoch observation values (Epoch: 2025-09-17T22:26:20.323Z)
Latitude
-0.00004°
Longitude
-96.88345°
Altitude
904.663 km
Speed
7.386 km/s
True Right ascension
15h 47m 13s
True Declination
0° 00' 00"
Sunlit
Object was in daylight at epoch
Visualization orbit readout
Latitude
Unknown
Longitude
Unknown
Altitude
Unknown
Speed
Unknown
Apparent Right ascension
Unknown
Apparent Declination
Unknown
Sunlit
N/A
Visualization observer readout
Local Sidereal Time
07:18:24
Azimuth
Unknown
Elevation
Unknown
Doppler factor
Unknown
Orbital elements
Apogee altitude
964.078 km
Perigee altitude
780.698 km
Semi-major axis
7,250.525 km
Eccentricity
0.01265
Inclination
90.2708°
RAAN
236.805°
Arg. of periapsis
252.8255°
True anomaly
107.2925°
Mean anomaly
105.905°
Eccentric anomaly
106.59937°
Mean motion
3.51552 °/min
Orbital period
102.4 mins
BSTAR
0.00037454
Loading maneuver chart data...
Computing Atmospheric mass density...
Loading historical data...
Loading historical data...
Loading historical data...
Loading historical data...
Loading historical data...
Loading historical data...
Loading historical data...

Documentation

Showing up to 5 results
|